Penn Yan, NY

7:01 PM EDT on June 24, 2017 (GMT -0400)
Penn Yan

Weather History for KPEO - January, 2013

Change the Weather History Date:

Sunday, January 20, 2013

  Actual Average (KITH) Record (KITH)
Temperature  
Mean Temperature 32 °F -  
Max Temperature 46 °F 29 °F 56 °F (1951)
Min Temperature 19 °F 10 °F -17 °F (1970)
Degree Days  
Heating Degree Days 32    
Moisture  
Dew Point 19 °F    
Average Humidity 67    
Maximum Humidity 87    
Minimum Humidity 40    
Precipitation  
Precipitation 0.03 in - - ()
Sea Level Pressure  
Sea Level Pressure 29.83 in    
Wind  
Wind Speed 17 mph (WSW)    
Max Wind Speed 30 mph    
Max Gust Speed 45 mph    
Visibility 6 miles    
Events Rain , Snow    
Averages and records for this station are not official NWS values.
T = Trace of Precipitation, MM = Missing Value Source: NWS Daily Summary

Daily Weather History Graph

Daily Weather History Graph

Search for Another Location

Airport or City:

Trip Planner

Search our weather history database for the weather conditions in past years. The results will help you decide how hot, cold, wet, or windy it might be!

Date:

Astronomy

Jan. 20, 2013 Rise Set
Actual Time 7:32 AM EST 5:06 PM EST
Civil Twilight 7:01 AM EST 5:37 PM EST
Nautical Twilight 6:27 AM EST 6:11 PM EST
Astronomical Twilight 5:53 AM EST 6:45 PM EST
Moon 12:06 PM EST (1/20) 2:02 AM EST (1/20)
Length of Visible Light 10h 35m
Length of Day
9h 33m
Waxing Gibbous, 66% of the Moon is Illuminated
Jan 20
Waxing Gibbous
Jan 26
Full
Feb 3
Last Quarter
Feb 10
New
Feb 17
First Quarter

Hourly Weather History & Observations

Time (EST) Temp. Windchill Dew Point Humidity Pressure Visibility Wind Dir Wind Speed Gust Speed Precip Events Conditions
12:53 AM 46.0 °F 40.2 °F 23.0 °F 40% 29.63 in 10.0 mi SSW 12.7 mph 21.9 mph N/A   Clear
1:53 AM 46.0 °F 40.2 °F 24.1 °F 42% 29.59 in 10.0 mi SSW 12.7 mph 25.3 mph N/A   Clear
2:53 AM 46.0 °F 39.6 °F 25.0 °F 44% 29.56 in 10.0 mi SSW 15.0 mph 24.2 mph N/A   Clear
3:53 AM 46.0 °F 39.0 °F 26.1 °F 46% 29.52 in 10.0 mi SSW 17.3 mph 27.6 mph N/A   Clear
4:53 AM 46.0 °F 38.8 °F 26.1 °F 46% 29.49 in 10.0 mi SSW 18.4 mph 31.1 mph N/A   Partly Cloudy
5:53 AM 45.0 °F 37.4 °F 28.0 °F 52% 29.48 in 10.0 mi SW 18.4 mph 28.8 mph N/A   Mostly Cloudy
6:37 AM 37.4 °F 26.6 °F 33.8 °F 87% 29.53 in 5.0 mi West 21.9 mph 42.6 mph 0.01 in Rain Rain
6:42 AM 37.4 °F 25.6 °F 32.0 °F 81% 29.53 in 3.0 mi West 26.5 mph 42.6 mph 0.03 in Rain Rain
6:51 AM 37.4 °F 27.8 °F 33.8 °F 87% 29.53 in 5.0 mi West 17.3 mph 42.6 mph 0.03 in Rain Light Rain
6:53 AM 37.0 °F 27.0 °F 32.0 °F 82% 29.56 in 7.0 mi West 18.4 mph 31.1 mph 0.03 in Rain Light Rain
7:09 AM 37.4 °F 27.5 °F 32.0 °F 81% 29.54 in 10.0 mi WSW 18.4 mph 28.8 mph 0.00 in Rain Light Rain
7:53 AM 39.0 °F 28.0 °F 25.0 °F 57% 29.57 in 10.0 mi WSW 25.3 mph 36.8 mph 0.00 in   Clear
8:53 AM 35.1 °F 23.5 °F 21.9 °F 59% 29.68 in 10.0 mi West 21.9 mph 35.7 mph 0.00 in   Mostly Cloudy
9:53 AM 32.0 °F 19.2 °F 16.0 °F 52% 29.76 in 10.0 mi West 23.0 mph 44.9 mph N/A   Scattered Clouds
10:53 AM 32.0 °F 19.2 °F 16.0 °F 52% 29.80 in 10.0 mi WSW 23.0 mph 41.4 mph N/A   Mostly Cloudy
11:53 AM 30.0 °F 17.9 °F 16.0 °F 56% 29.82 in 10.0 mi West 18.4 mph 29.9 mph 0.00 in Snow Light Snow
12:03 PM 28.4 °F 14.4 °F 19.4 °F 69% 29.80 in 2.0 mi West 23.0 mph 39.1 mph 0.00 in Snow Light Snow
12:10 PM 28.4 °F 14.4 °F 19.4 °F 69% 29.81 in 1.8 mi West 23.0 mph 39.1 mph 0.00 in Snow Light Snow
12:14 PM 26.6 °F 13.4 °F 19.4 °F 74% 29.81 in 2.5 mi West 18.4 mph 36.8 mph 0.00 in Snow Light Snow
12:23 PM 28.4 °F 14.7 °F 19.4 °F 69% 29.81 in 5.0 mi WSW 21.9 mph 27.6 mph 0.00 in Snow Light Snow
12:53 PM 28.9 °F 15.8 °F 15.1 °F 56% 29.85 in 10.0 mi WSW 20.7 mph 27.6 mph 0.00 in   Overcast
1:49 PM 26.6 °F 12.4 °F 15.8 °F 64% 29.87 in 3.0 mi West 21.9 mph 33.4 mph 0.00 in Snow Light Snow
1:53 PM 26.1 °F 11.0 °F 15.1 °F 63% 29.91 in 3.0 mi West 24.2 mph 32.2 mph 0.00 in Snow Light Snow
2:12 PM 26.6 °F 10.3 °F 12.2 °F 55% 29.88 in 9.0 mi WSW 29.9 mph 36.8 mph 0.00 in   Overcast
2:53 PM 26.1 °F 12.0 °F 12.0 °F 55% 29.93 in 10.0 mi West 20.7 mph 32.2 mph 0.00 in   Overcast
3:53 PM 25.0 °F 12.2 °F 10.0 °F 53% 29.96 in 10.0 mi West 16.1 mph 31.1 mph N/A   Overcast
4:53 PM 24.1 °F 10.6 °F 12.0 °F 60% 29.98 in 7.0 mi West 17.3 mph 28.8 mph 0.00 in Snow Light Snow
5:53 PM 24.1 °F 11.0 °F 12.0 °F 60% 30.00 in 10.0 mi WSW 16.1 mph 24.2 mph 0.00 in   Overcast
6:39 PM 21.2 °F 9.5 °F 15.8 °F 80% 30.00 in 2.5 mi West 11.5 mph 18.4 mph 0.00 in Snow Light Snow
6:42 PM 21.2 °F 9.5 °F 15.8 °F 80% 30.00 in 1.8 mi West 11.5 mph 18.4 mph 0.00 in Snow Light Snow
6:51 PM 21.2 °F 9.5 °F 17.6 °F 86% 30.00 in 0.8 mi West 11.5 mph - 0.00 in Snow Light Snow
6:53 PM 21.0 °F 9.9 °F 17.1 °F 85% 30.04 in 0.8 mi West 10.4 mph 17.3 mph 0.00 in Snow Light Snow
7:16 PM 21.2 °F 8.3 °F 17.6 °F 86% 30.01 in 1.2 mi WSW 13.8 mph - 0.00 in Snow Light Snow
7:35 PM 21.2 °F 10.1 °F 17.6 °F 86% 30.02 in 1.8 mi WSW 10.4 mph - 0.00 in Snow Light Snow
7:50 PM 21.2 °F 13.6 °F 17.6 °F 86% 30.02 in 0.8 mi Variable 5.8 mph - 0.00 in Snow Light Snow
7:53 PM 21.0 °F 10.6 °F 17.1 °F 85% 30.06 in 0.8 mi WNW 9.2 mph - 0.00 in Snow Light Snow
8:18 PM 19.4 °F 5.0 °F 15.8 °F 86% 30.02 in 1.2 mi West 16.1 mph 26.5 mph 0.00 in Snow Light Snow
8:30 PM 19.4 °F 6.0 °F 14.0 °F 80% 30.02 in 2.5 mi West 13.8 mph 21.9 mph 0.00 in Snow Light Snow
8:37 PM 19.4 °F 5.5 °F 12.2 °F 74% 30.02 in 8.0 mi West 15.0 mph 21.9 mph 0.00 in Snow Light Snow
8:44 PM 19.4 °F 7.9 °F 12.2 °F 74% 30.02 in 9.0 mi West 10.4 mph 20.7 mph 0.00 in   Overcast
8:53 PM 21.0 °F 9.9 °F 12.0 °F 68% 30.06 in 10.0 mi West 10.4 mph - 0.00 in   Overcast
9:53 PM 21.0 °F 9.3 °F 9.0 °F 60% 30.08 in 10.0 mi West 11.5 mph 19.6 mph N/A   Overcast
10:53 PM 19.9 °F 11.1 °F 9.0 °F 62% 30.08 in 10.0 mi Variable 6.9 mph - N/A   Overcast
11:53 PM 19.0 °F 10.0 °F 6.1 °F 57% 30.08 in 10.0 mi West 6.9 mph - N/A   Overcast